Location: ???????
(55.9569°N, 38.6553°E)
Time: 06:35:04
(UTC+00:00)

Cosmos 1850 Rocket - Pass Details

Date: 23 May 2024
Orbit: 753 x 782 km, 74.0° (Epoch: 23 June)

Event Time Altitude Azimuth Distance (km) Brightness Sun altitude
Exits shadow 00:06:04 - 213° (SSW) 2,572 6.0 -5.9°
Reaches altitude 10° 00:06:43 10° 213° (SSW) 2,323 5.8 -5.9°
Maximum altitude 00:12:00 77° 300° (WNW) 800 4.1 -5.4°
Drops below altitude 10° 00:17:17 10° 27° (NNE) 2,319 8.1 -4.9°
Sets 00:19:40 0° 29° (NNE) 3,245 9.3 -4.7°
